KPSNKGTU

Guest
Details From KPSN - PALESTINE MUNI
To KGTU - Georgetown Muni
Flight Number -
Tags generated
Created
Modified
Stats Distance 121 nm / 224 km
Max Altitude 10,900 ft / 3,322 m
Waypoints 3
Social Downloads 0
Likes 0
Share VATSIM

Download

Looking for another format? Having issues loading an existing format? Contact us
Advertisement - Login to hide

Notes

Basic altitude profile: - Ascent Rate: 800ft/min - Ascent Speed: 95kts - Cruise Altitude: 6000ft - Cruise Speed: 175kts - Descent Rate: 500ft/min - Descent Speed: 130kts Options: - Use NATs: yes - Use PACOTS: yes - Use low airways: yes - Use high airways: no

Route

KPSN LOTTA KGTU

ID Type Via Altitude Latitude Longitude Leg Dist Tot Dist Heading (true) Name
O KPSN APT - 0 ft / 0 m 31.77943˚ -95.70630˚ - 0 nm - PALESTINE MUNI
LOTTA FIX - 10,900 ft / 3,322 m 31.14120˚ -96.84794˚ 69 nm 69 nm 237° / 236° -
O KGTU APT - 0 ft / 0 m 30.67878˚ -97.67949˚ 51 nm 120 nm 237° / 237° Georgetown Muni

Altitude Profile

Advertisement - Login to hide

KPSN

Details ICAO KPSN
Name PALESTINE MUNI
Region United States
Timezone America/Chicago (UTC-5.0)
Stats Elevation 423 ft / 129 m (AMSL)
Location 31.779427° -95.706303°
Runways 2
Magnetic Variation 2.592° E

METAR

KPSN 221955Z AUTO 00000KT 10SM CLR 26/20 A3001 RMK AO2 T02640203

Decode

TAF

Not found

Departure Runways

ID Width Length Bearing (true) Bearing (mag) Surface Threshold Offset Overrun Length
09 75 ft / 23 m 3,996 ft / 1,218 m 90.56° 87.97° Asphalt 0 ft / 0 m 0 ft / 0 m
18 100 ft / 30 m 5,022 ft / 1,531 m 180.52° 177.93° Asphalt 0 ft / 0 m 0 ft / 0 m
27 75 ft / 23 m 3,996 ft / 1,218 m 270.57° 267.98° Asphalt 0 ft / 0 m 0 ft / 0 m
36 100 ft / 30 m 5,022 ft / 1,531 m 0.52° 357.93° Asphalt 0 ft / 0 m 0 ft / 0 m

KGTU

Details ICAO KGTU (GTU)
Name Georgetown Muni
Region United States
Timezone America/Chicago (UTC-5.0)
Stats Elevation 790 ft / 241 m (AMSL)
Location 30.678783° -97.679490°
Runways 2
Magnetic Variation 3.767° E

METAR

KGTU 221956Z 19008KT 10SM SCT041 BKN050 31/20 A2997 RMK AO2 SLP142 T03110200

Decode

TAF

Not found

Destination Runways

ID Width Length Bearing (true) Bearing (mag) Surface Threshold Offset Overrun Length
11 75 ft / 23 m 4,098 ft / 1,249 m 120.69° 116.92° Asphalt 0 ft / 0 m 0 ft / 0 m
18 100 ft / 30 m 5,016 ft / 1,529 m 183.55° 179.78° Asphalt 0 ft / 0 m 0 ft / 0 m
29 75 ft / 23 m 4,098 ft / 1,249 m 300.69° 296.92° Asphalt 0 ft / 0 m 0 ft / 0 m
36 100 ft / 30 m 5,016 ft / 1,529 m 3.55° 359.78° Asphalt 0 ft / 0 m 0 ft / 0 m